Location: Krakow
(50.0212°N, 19.9423°E)
Time: 00:22:21
(UTC+02:00)

NOAA 18 - Pass Details

Date: 19 August 2024
Orbit: 837 x 859 km, 98.9° (Epoch: 19 September)

Event Time Altitude Azimuth Distance (km) Brightness Sun altitude
Exits shadow 00:39:01 10° 261° (W) 2,500 7.6 -27.3°
Reaches altitude 10° 00:39:04 10° 262° (W) 2,496 7.6 -27.3°
Maximum altitude 00:40:28 11° 277° (W) 2,433 7.7 -27.3°
Drops below altitude 10° 00:41:53 10° 292° (WNW) 2,501 7.9 -27.3°
Sets 00:46:33 0° 328° (NNW) 3,446 9.2 -27.3°
